Location: Unspecified
(38.7273°N, 77.0677°W)
Time: 23:31:38
(UTC-04:00)

ISS - Pass Details

Date: 26 June 2021
Orbit: 419 x 421 km, 51.6° (Epoch: 03 August)

Event Time Altitude Azimuth Distance (km) Brightness Sun altitude
Exits shadow 05:10:40 - 230° (SW) 1,622 -1.5 -6.4°
Reaches altitude 10° 05:10:59 10° 230° (SW) 1,493 -1.7 -6.4°
Maximum altitude 05:14:20 88° 150° (SSE) 423 -3.7 -5.8°
Drops below altitude 10° 05:17:43 10° 52° (NE) 1,500 1.0 -5.3°
Sets 05:19:49 0° 52° (NE) 2,367 3.1 -5.0°
